Location: *
(4.8667°S, 168.4833°W)
Time: 05:21:30
(UTC+00:00)

Daily predictions for brighter satellites

Satellite Brightness Start Highest point End
(mag) Time Altitude Azimuth Time Altitude Azimuth Time Altitude Azimuth
FALCON 9 R/B 4.5 05:10:58 10° WNW 05:18:51 85° SSW 06:13:38 16° ESE
Atlas Centaur 2 4.1 05:13:47 10° NNW 05:20:19 31° NE 05:27:31 10° E
STARLINK-1056 3.9 05:20:36 10° NNW 05:24:37 50° ENE 05:28:38 10° SE
Meteor 2-20 Rocket 4.5 05:19:01 10° S 05:25:11 74° E 05:31:17 10° N
NOAA 12 4.1 05:22:14 10° SSE 05:27:29 82° ENE 05:32:42 10° N
STARLINK-1202 4.4 05:23:40 10° SW 05:27:45 58° NW 05:31:48 10° NNE
STARLINK-1054 3.8 05:25:31 10° NNW 05:29:34 59° NE 05:33:39 10° SE
STARLINK-1062 3.6 05:30:26 10° NNW 05:34:32 70° ENE 05:38:39 10° SE
NOSS 3-1 (A) 3.7 05:30:30 10° SW 05:35:40 58° WNW 05:40:44 10° NNE
Cosmos 1602 4.4 05:32:42 10° NNE 05:36:10 34° E 05:39:39 10° SSE
Cosmos 405 3.2 05:34:37 10° S 05:38:05 71° W 05:41:31 10° N
Okean O Rocket 4.2 05:35:42 10° SSW 05:39:07 22° WSW 05:42:32 10° NW
STARLINK-1053 3.6 05:35:21 10° NNW 05:39:29 82° ENE 05:43:38 10° SE
IRS-1C Rocket 4.1 05:35:20 10° SSE 05:40:37 85° ENE 05:45:51 10° N
CZ-2C R/B 4.4 05:40:36 10° E 05:42:03 11° ESE 05:42:31 11° ESE
Cosmos 2278 Rocket 3.4 05:38:48 10° SSE 05:42:42 19° ESE 05:46:34 10° ENE
Cosmos 1844 Rocket 3.8 05:38:39 10° SSW 05:44:05 49° WNW 05:49:33 10° N
STARLINK-1061 3.6 05:40:20 10° NW 05:44:27 86° SW 05:48:36 10° SSE
STARLINK-1065 3.7 05:42:08 10° NW 05:46:15 80° SW 05:50:24 10° SSE
Milstar 3 Cent rocket 2.4 05:42:48 10° WSW 05:47:35 84° NNW 05:55:10 10° ENE
Cosmos 1933 Rocket 3.7 05:44:55 10° N 05:49:13 78° W 05:53:34 10° S
STARLINK-1067 3.8 05:45:19 10° NW 05:49:25 74° WSW 05:53:34 10° SSE
STARLINK-1058 4.0 05:50:18 10° NW 05:54:23 63° SW 05:58:22 11° SSE
FengYun 1-2 T 4.3 05:49:44 10° S 05:55:19 85° WSW 06:00:55 10° NNW
Centaur AC-42 4.2 05:54:36 10° N 05:57:26 17° NE 06:02:04 10° ENE
Cosmos 2056 Rocket 4.1 05:54:01 10° SSE 05:58:38 33° ESE 06:03:11 10° NE
OAO 3 Rocket 4.0 05:54:38 10° NNW 05:59:15 39° NE 06:02:16 19° E
STARLINK-1043 4.2 05:55:20 10° NW 05:59:21 53° SW 06:03:10 11° SSE
Meteor 1-14 Rocket 4.2 06:01:06 10° N 06:06:40 86° E 06:12:23 10° S
CZ-2D R/B 3.4 06:03:56 16° SSE 06:06:50 50° E 06:10:34 10° N
Delta 7925 Rocket 3.8 06:04:00 10° WNW 06:09:39 56° SSW 06:12:34 23° SE
Cosmos 2061 Rocket 4.5 06:06:53 10° NNW 06:13:07 64° W 06:19:20 10° S
ARIANE DEB (SPELDA) 4.0 05:57:58 10° W 06:15:47 61° N 06:18:17 23° ENE
MOS 1 Rocket 3.9 06:13:51 10° NE 06:16:59 29° E 06:16:59 29° E
CSL-04 Rocket 3.9 06:15:41 22° SE 06:18:49 46° ENE 06:24:00 10° N
Meteor 1-5 Rocket 4.5 06:16:30 10° NNE 06:21:58 48° E 06:25:05 25° SSE
Okean-O 3.6 06:18:37 10° S 06:22:51 47° WSW 06:27:06 10° NNW
CZ-2C R/B 4.5 06:19:14 10° NE 06:22:35 31° E 06:22:35 31° E
DMSP B5D2-2 4.3 06:25:35 10° NNE 06:30:32 44° ESE 06:31:52 37° SE
Ariane H10 4.0 06:00:54 10° WNW 06:31:33 56° N 06:34:42 26° ENE
STARLINK-1175 3.9 06:29:39 10° NNW 06:31:17 34° NNW 06:31:17 34° NNW
ARIANE 5 DEB (SYLDA) 2.7 06:30:34 10° W 06:37:42 67° S 06:37:51 66° SSE
Cosmos 1500 3.0 06:34:35 10° N 06:38:24 86° E 06:38:26 85° ESE
Cosmos 405 Rocket 2.6 06:38:47 10° N 06:42:32 83° NW 06:42:32 83° NW
Meteor 1-11 Rocket 3.6 06:41:37 10° N 06:47:00 58° E 06:47:08 58° E
Delta 168 4.3 06:39:47 10° NW 06:48:52 62° NNE 06:50:38 47° ENE
CZ-4 R/B 3.5 06:48:55 10° SSW 06:52:18 25° WSW 06:55:44 10° NW
Meteor 2-11 Rocket 4.3 06:46:44 10° N 06:52:41 62° E 06:53:04 61° ESE
GPS 2-14 Rocket1 3.2 06:49:24 10° WSW 06:52:56 59° WNW 06:52:56 59° WNW
DELTA-4 R/B 2.9 06:49:38 10° W 06:53:46 51° NNW 06:53:46 51° NNW
Cosmos 2242 Rocket 4.2 06:53:22 26° SSW 06:55:41 55° W 07:00:00 10° N
YAOGAN 1 4.2 06:54:08 17° SSW 06:56:44 32° WSW 07:00:35 10° NW
Cosmos 1816 Rocket 4.3 06:54:01 32° S 06:57:05 80° E 07:03:13 10° N
GPS 2-15 Rocket1 4.4 06:59:58 10° NW 07:03:20 32° N 07:03:20 32° N
deb Ariane 4.2 06:58:06 10° W 07:04:21 52° W 07:04:21 52° W
H-2A R/B 3.0 07:10:48 35° N 07:10:48 35° N 07:13:39 10° N
Atlas Centaur 2 3.0 07:01:54 10° WNW 07:10:07 85° SSW 07:11:40 65° SE
Palapa B4 Rocket 4.3 07:07:35 10° WNW 07:09:50 35° NW 07:09:50 35° NW
Cosmos 44 3.8 07:07:53 10° NNW 07:12:17 61° WNW 07:12:17 61° WNW
CZ-2C R/B 3.5 07:16:35 10° N 07:21:57 50° WNW 07:24:02 34° SW
Cosmos 1943 4.4 07:20:19 10° NW 07:25:25 36° WSW 07:26:09 35° WSW
Cosmos 2278 Rocket 3.9 07:21:39 10° SW 07:26:30 30° WNW 07:31:22 10° NNW
CZ-2C R/B 4.4 07:33:18 35° NW 07:33:18 35° NW 07:36:30 10° NNW
USA 267 4.0 07:52:28 47° WNW 07:52:28 47° WNW 07:57:11 10° NW
ATLAS 5 CENTAUR R/B 4.2 08:16:53 10° W 09:01:31 - ESE 08:18:03 20° W
